Starlink 31583

operational
NORAD ID: 59369 Int'l Des: 2024-060 Owner: SPXS Country: US Constellation: starlink
LEOCIRCULAR

Über Starlink 31583

Beschreibung wird geladen...

Live-Position

3D-Globus wird geladen...

Nächste Überflüge

Höhenverlauf

Altitude vs Time

uPlot chart will show altitude changes over time

Zweizeiliger Elementsatz

1 59369U 24060X 25261.09426801 .00000435 00000-0 25329-4 0 9997
2 59369 42.9984 143.5851 0000240 344.0212 16.0632 15.27575685 83795
Epoch: 18. Sept. 2025 • Age: 14 hours

Aktueller Status

Höhe 493.3 km
Geschwindigkeit 7.62 km/s
Subsatellitenpunkt -35.41°S, 134.08°E
Startdatum 31. März 2024
Alter 1.4 years
Typ internet

Technische Details

Klassifizierung Payload
Masse 730.00 kg
Trockenmasse 700.00 kg
Gesamtmasse 730.00 kg
Länge 0.30 m
Durchmesser 4.10 m
Spannweite 29.00 m
Form Box + pan
Hersteller SPXS
Bus-Typ Starlink V2M
Phasenstatus In Orbit
Besitzer/Staat SPXS/US

Große Konstellationen

Loading constellations...